Bat Cave, NC

11:56 PM EST on February 08, 2016 (GMT -0500)
Asheville Regional

Weather History for KAVL - December, 2007

Change the Weather History Date:

Sunday, December 30, 2007

  Actual Average Record
Temperature  
Mean Temperature 43 °F 37 °F  
Max Temperature 47 °F 47 °F 73 °F (1984)
Min Temperature 38 °F 27 °F -4 °F (1917)
Degree Days  
Heating Degree Days 22 28  
Month to date heating degree days 625 766  
Since 1 July heating degree days 1433 1633  
Cooling Degree Days 0 0  
Month to date cooling degree days 0 0  
Year to date cooling degree days 984 863  
Moisture  
Dew Point 42 °F    
Average Humidity 93    
Maximum Humidity 100    
Minimum Humidity 86    
Precipitation  
Precipitation 0.62 in 0.10 in 1.19 in (1969)
Month to date precipitation 4.06 3.49  
Year to date precipitation 34.39 45.47  
Snow  
Snow 0.00 in 0.00 in 3.00 in (1895)
Month to date snowfall 0.1 0.8  
Since 1 July snowfall 0.1 0.9  
Snow Depth -    
Sea Level Pressure  
Sea Level Pressure 29.93 in    
Wind  
Wind Speed 5 mph (SSW)    
Max Wind Speed 18 mph    
Max Gust Speed 23 mph    
Visibility 7 miles    
Events Rain    
T = Trace of Precipitation, MM = Missing Value Source: NWS Daily Summary

Daily Weather History Graph

Daily Weather History Graph

Search for Another Location

Airport or City:

Trip Planner

Search our weather history database for the weather conditions in past years. The results will help you decide how hot, cold, wet, or windy it might be!

Date:

Astronomy

Dec. 30, 2007 Rise Set
Actual Time 7:38 AM EST 5:26 PM EST
Civil Twilight 7:10 AM EST 5:54 PM EST
Nautical Twilight 6:38 AM EST 6:26 PM EST
Astronomical Twilight 6:07 AM EST 6:57 PM EST
Moon No Moon Rise 11:47 AM EST (12/30)
Length of Visible Light 10h 44m
Length of Day
9h 47m
Waning Gibbous, 56% of the Moon is Illuminated
Dec 30
Waning Gibbous
Dec 31
Last Quarter
Jan 8
New
Jan 15
First Quarter
Jan 22
Full

Hourly Weather History & Observations

Time (EST) Temp. Windchill Dew Point Humidity Pressure Visibility Wind Dir Wind Speed Gust Speed Precip Events Conditions
12:54 AM 41.0 °F - 37.0 °F 86% 30.04 in 10.0 mi Calm Calm - N/A   Mostly Cloudy
1:54 AM 39.0 °F - 37.0 °F 93% 30.04 in 10.0 mi Calm Calm - N/A   Scattered Clouds
2:54 AM 39.9 °F 37.8 °F 37.9 °F 93% 30.03 in 10.0 mi Variable 3.5 mph - N/A   Mostly Cloudy
3:54 AM 39.9 °F - 37.0 °F 89% 30.01 in 10.0 mi Calm Calm - N/A   Mostly Cloudy
4:54 AM 39.9 °F - 37.9 °F 93% 30.01 in 10.0 mi Calm Calm - N/A   Overcast
5:54 AM 39.9 °F - 37.9 °F 93% 29.98 in 10.0 mi Calm Calm - N/A   Overcast
6:54 AM 39.9 °F - 37.9 °F 93% 29.98 in 10.0 mi Calm Calm - N/A   Mostly Cloudy
7:54 AM 41.0 °F 39.0 °F 39.0 °F 93% 29.98 in 10.0 mi SE 3.5 mph - N/A   Mostly Cloudy
8:54 AM 41.0 °F - 39.9 °F 96% 30.03 in 4.0 mi Calm Calm - 0.04 in Rain Rain
9:08 AM 42.8 °F - 41.0 °F 93% 30.04 in 2.5 mi Calm Calm - 0.04 in Rain Rain
9:40 AM 42.8 °F 40.1 °F 42.8 °F 100% 30.03 in 2.5 mi NNE 4.6 mph - 0.18 in Rain Rain
9:49 AM 42.8 °F 39.3 °F 41.0 °F 93% 30.03 in 3.0 mi North 5.8 mph - 0.20 in Rain Rain
9:54 AM 43.0 °F 41.3 °F 41.0 °F 93% 30.03 in 3.0 mi North 3.5 mph - 0.21 in Rain Rain
10:00 AM 42.8 °F 39.3 °F 42.8 °F 100% 30.03 in 2.5 mi NNW 5.8 mph - 0.01 in Rain Light Rain
10:38 AM 42.8 °F 41.1 °F 41.0 °F 93% 30.04 in 2.5 mi WSW 3.5 mph - 0.06 in Rain Rain
10:54 AM 42.1 °F 39.2 °F 41.0 °F 96% 30.06 in 2.5 mi SW 4.6 mph - 0.10 in Rain Rain
11:27 AM 42.8 °F 39.3 °F 42.8 °F 100% 29.99 in 3.0 mi SSE 5.8 mph - 0.09 in Rain Light Rain
11:35 AM 42.8 °F 37.5 °F 42.8 °F 100% 30.01 in 4.0 mi SSW 9.2 mph - 0.10 in Rain Light Rain
11:54 AM 41.0 °F 34.7 °F 41.0 °F 100% 29.97 in 7.0 mi South 10.4 mph - 0.12 in Rain Light Rain
12:54 PM 43.0 °F 37.7 °F 43.0 °F 100% 29.92 in 10.0 mi SSW 9.2 mph - 0.01 in   Overcast
1:20 PM 44.6 °F 41.4 °F 44.6 °F 100% 29.91 in 10.0 mi SSW 5.8 mph - N/A   Overcast
1:54 PM 44.1 °F 40.1 °F 43.0 °F 96% 29.89 in 7.0 mi SSE 6.9 mph - N/A   Overcast
2:19 PM 44.6 °F 39.7 °F 42.8 °F 93% 29.87 in 5.0 mi SE 9.2 mph - N/A Rain Rain
2:49 PM 44.6 °F 41.4 °F 44.6 °F 100% 29.85 in 9.0 mi South 5.8 mph - 0.04 in Rain Light Rain
2:54 PM 45.0 °F 41.2 °F 44.1 °F 97% 29.86 in 10.0 mi SSW 6.9 mph - 0.04 in   Overcast
3:01 PM 44.6 °F 40.7 °F 44.6 °F 100% 29.85 in 5.0 mi SSW 6.9 mph - N/A   Overcast
3:33 PM 46.4 °F 44.3 °F 44.6 °F 93% 29.86 in 5.0 mi SE 4.6 mph - 0.00 in Rain Light Rain
3:54 PM 46.0 °F 43.9 °F 45.0 °F 96% 29.86 in 5.0 mi SE 4.6 mph - 0.01 in Rain Light Rain
4:11 PM 46.4 °F 42.9 °F 46.4 °F 100% 29.85 in 2.5 mi ESE 6.9 mph - 0.03 in Rain Light Rain
4:18 PM 46.4 °F 42.9 °F 46.4 °F 100% 29.86 in 2.5 mi SSE 6.9 mph - 0.04 in Rain Rain
4:51 PM 46.4 °F 42.4 °F 46.4 °F 100% 29.85 in 1.5 mi SSE 8.1 mph - 0.08 in Rain Light Rain
4:54 PM 46.9 °F - 46.0 °F 97% 29.83 in 1.5 mi SSE 6.9 mph - 0.08 in Rain Light Rain
5:54 PM 46.9 °F - 46.9 °F 100% 29.85 in 3.0 mi South 3.5 mph - 0.01 in   Mostly Cloudy
6:15 PM 46.4 °F - 46.4 °F 100% 29.84 in 10.0 mi Calm Calm - N/A   Mostly Cloudy
6:54 PM 46.0 °F - 45.0 °F 96% 29.84 in 10.0 mi Calm Calm - N/A   Mostly Cloudy
7:01 PM 46.4 °F - 46.4 °F 100% 29.84 in 10.0 mi Calm Calm - N/A   Mostly Cloudy
7:44 PM 46.4 °F 41.5 °F 44.6 °F 93% 29.85 in 7.0 mi NNW 10.4 mph - N/A   Overcast
7:54 PM 45.0 °F 38.2 °F 44.1 °F 97% 29.86 in 10.0 mi NNW 15.0 mph - N/A   Overcast
8:27 PM 44.6 °F 38.4 °F 42.8 °F 93% 29.87 in 10.0 mi NNW 12.7 mph - N/A   Overcast
8:54 PM 44.1 °F 36.8 °F 42.1 °F 93% 29.88 in 10.0 mi NNW 16.1 mph - N/A   Overcast
9:29 PM 42.8 °F 35.8 °F 41.0 °F 93% 29.90 in 10.0 mi NNW 13.8 mph - N/A   Mostly Cloudy
9:51 PM 42.8 °F 37.5 °F 39.2 °F 87% 29.91 in 10.0 mi NNW 9.2 mph - N/A   Scattered Clouds
9:54 PM 42.1 °F 36.6 °F 39.9 °F 92% 29.91 in 10.0 mi NNW 9.2 mph - N/A   Mostly Cloudy
9:58 PM 42.8 °F 38.0 °F 39.2 °F 87% 29.91 in 10.0 mi NNW 8.1 mph - N/A   Scattered Clouds
10:54 PM 41.0 °F 36.4 °F 37.9 °F 89% 29.94 in 10.0 mi NW 6.9 mph - N/A   Clear
11:54 PM 37.9 °F 34.4 °F 36.0 °F 93% 29.94 in 10.0 mi NNW 4.6 mph - N/A   Clear